Location: ??????
(42.0089°N, 44.3281°E)
Time: 13:58:50
(UTC+00:00)

NOSS 8 (H) - Pass Details

Date: 03 June 2022
Orbit: 366 x 1779 km, 63.3° (Epoch: 28 June)

Event Time Altitude Azimuth Distance (km) Brightness Sun altitude
Rises 19:22:21 0° 301° (WNW) 2,744 9.3 -21.7°
Reaches altitude 10° 19:25:06 10° 278° (W) 2,051 8.1 -21.9°
Maximum altitude 19:27:50 16° 242° (WSW) 1,911 7.5 -22.1°
Enters shadow 19:29:04 14° 226° (SW) 2,066 7.5 -22.2°
